Find OneWeb SL0015

NORAD ID: 61594 Int'l Des: 2024-188 Owner: ONEWEBE Country: UK Constellation: oneweb operational
別名: ONEWEB-0015 spacetrack, celestrak
LEOCIRCULARPOLARONEWEB_TYPE

現在のビュー

3D地球を読み込み中...

About OneWeb SL0015

OneWeb SL0015 (NORAD 61594) is a oneweb constellation satellite launched Oct 20, 2024 by ONEWEBE of UK. It operates in LEO, CIRCULAR, POLAR, ONEWEB_TYPE orbit with a mass of 148.00 kg.

次回通過

Passes for default location (London). Set your location on the main map for personalized predictions.

高度履歴

Loading altitude history...

軌道要素

1 61594U 24188A 26265.74044703 -.00000058 00000-0 -20078-3 0 9993
2 61594 87.8962 1.6983 0002296 108.1697 251.9681 13.11415477 97243
Epoch: Sep 22, 2026 • Age: 16 hours

現在のステータス

高度 1246.6 km
遠地点 / 近地点 N/A
速度 7.23 km/s
衛星直下点 -75.28°S, 41.55°E
打ち上げ日 Oct 20, 2024
運用期間 1.9 years
タイプ internet

技術仕様

分類 Payload
質量 148.00 kg
乾燥質量 140.00 kg
長さ 1.30 m
直径 1.00 m
スパン 5.00 m
形状 ? Trapezoid+2 pan
製造者 ONEWUS
バスタイプ ARROW
フェーズステータス In Orbit
所有者/国 ONEWEBE/UK

Most Searched